GFSSE_sfc_thetae_009.txt.gz
Theta_e
340 346 349 349 351 350 349 348 348 350 351 349 348 348 346 345 343 342 341 341 341 342 343 342 341 343 344 345 345 344 343 345 345 343 342 344 345 347 347 346 348 344 343
344 347 348 350 351 350 349 348 348 348 348 348 347 347 346 345 343 342 341 340 340 340 341 343 342 345 346 346 344 343 343 344 346 346 345 345 347 347 347 345 346 343 345
344 346 348 349 351 350 348 348 348 348 348 347 345 344 344 344 343 341 338 338 338 339 340 341 342 343 343 341 340 341 341 342 344 345 346 334 338 343 347 345 345 345 345
344 346 348 347 350 350 349 349 348 348 347 345 345 344 344 344 343 341 338 337 338 340 341 341 341 340 340 341 341 340 340 340 341 343 337 335 337 345 347 346 344 344 342
342 346 347 346 347 350 351 350 349 348 347 346 346 345 344 343 341 339 337 337 338 339 340 339 338 336 335 335 339 339 339 340 341 339 338 340 338 341 345 344 345 345 345
336 342 342 344 345 346 345 346 346 346 344 343 343 343 343 341 338 336 337 338 339 339 338 338 338 338 337 336 334 335 336 337 339 337 336 340 337 344 341 339 343 343 343
330 333 339 341 343 343 342 341 342 343 343 343 342 342 341 340 338 337 337 337 335 335 334 334 335 334 335 335 336 336 334 335 337 336 335 337 340 340 337 336 337 340 342
330 332 333 337 340 340 340 340 340 341 340 340 341 340 339 338 337 336 335 334 333 333 332 331 331 331 331 331 331 332 333 334 334 336 336 337 337 339 338 338 337 336 339
331 332 334 335 336 338 338 338 339 339 338 338 336 336 337 335 334 333 332 331 331 330 330 329 328 327 328 328 327 327 328 330 334 335 335 335 335 336 336 335 335 336 337
330 333 335 336 335 337 338 336 337 337 337 335 334 333 333 334 333 331 329 330 329 328 327 326 325 324 324 325 325 325 326 328 332 331 332 329 332 334 335 334 335 336 336
330 334 336 335 334 334 332 333 334 336 337 336 335 333 333 336 335 333 329 327 326 325 325 324 323 322 323 324 325 325 326 329 329 327 330 330 331 332 333 333 334 335 337
331 332 337 338 336 334 330 334 334 332 335 337 337 337 336 337 336 333 330 329 328 327 327 326 325 326 326 325 324 325 325 325 323 324 327 328 328 330 331 332 333 334 335
331 331 336 341 339 335 331 332 333 333 333 334 337 337 336 335 335 333 332 331 331 327 327 326 326 326 327 324 322 322 322 323 321 320 322 321 319 321 324 327 329 331 333
330 330 335 340 337 336 334 333 333 332 331 332 333 335 334 331 332 331 328 327 327 325 326 326 325 327 325 320 318 318 319 318 316 317 318 317 314 316 318 321 323 326 328
327 330 334 339 335 332 333 333 333 333 332 332 332 331 330 329 330 328 326 325 324 323 323 323 323 323 321 319 317 317 317 317 318 317 318 317 314 316 318 319 321 324 325
327 330 334 337 335 330 331 332 333 331 329 329 327 327 329 329 328 326 324 323 322 322 322 322 323 323 320 318 317 316 317 316 316 318 316 315 316 317 318 318 321 323 324
328 329 333 336 333 329 329 329 328 325 326 327 326 327 326 327 327 327 324 323 323 324 326 324 323 322 321 319 317 316 316 316 316 316 316 314 314 316 317 318 318 319 319
328 328 332 333 330 328 328 327 327 327 327 326 326 326 325 325 325 325 323 323 325 325 323 322 320 319 319 318 318 316 315 315 315 315 315 314 314 314 315 318 317 317 318
327 328 330 334 325 325 327 326 327 326 324 322 322 321 323 322 322 322 321 323 327 323 324 323 322 322 319 318 317 318 317 315 316 314 314 315 316 314 314 318 317 316 315
325 327 330 331 324 324 327 326 322 322 322 322 321 320 320 320 320 320 319 322 322 319 320 321 323 321 322 320 316 316 319 318 316 317 315 313 314 316 314 314 313 312 315
327 327 328 325 323 322 321 319 317 317 318 319 319 319 319 318 316 316 315 316 317 315 317 319 319 319 318 320 318 318 318 319 318 316 317 315 314 314 316 315 314 312 311
325 324 322 320 318 319 319 318 319 318 318 318 318 318 317 316 315 313 313 312 313 312 316 317 317 315 316 318 314 314 309 312 316 316 315 315 316 314 314 315 315 313 311
319 319 318 318 317 317 318 317 317 317 317 315 315 314 315 314 312 312 312 312 313 313 311 314 314 313 310 313 316 312 306 304 310 314 316 315 315 315 314 314 314 311 310
318 318 318 317 316 316 317 315 315 312 311 313 313 313 312 312 310 310 310 310 311 311 311 311 309 311 311 307 310 310 313 312 305 304 312 313 313 311 315 314 313 309 309
317 317 318 316 315 315 315 314 313 313 313 314 313 311 311 310 310 308 309 310 309 309 309 310 309 308 307 306 305 306 307 306 306 300 298 305 309 311 309 310 312 309 308
317 317 317 315 314 314 314 314 314 312 309 309 308 307 307 307 306 307 307 308 308 308 307 306 307 306 304 304 303 302 299 297 296 295 295 299 302 305 308 308 307 307 307

GFSSE_sfc_thetae_012.txt.gz
Theta_e
341 343 348 351 351 350 350 350 350 350 350 351 349 348 346 345 344 344 343 343 344 343 344 344 344 346 346 347 345 345 346 346 346 346 347 346 345 348 348 349 346 340 344
344 344 349 351 351 350 350 350 350 349 349 349 348 348 346 345 343 341 341 341 341 341 342 343 344 344 344 343 342 343 343 343 344 345 347 347 348 347 346 348 346 339 342
342 344 347 349 351 350 350 350 350 349 348 348 347 347 345 345 343 341 340 340 341 341 342 342 342 342 341 342 341 342 342 342 342 342 344 336 331 342 344 347 345 345 344
344 346 347 348 349 350 350 350 350 348 347 347 346 345 345 344 342 340 338 339 340 340 340 339 339 337 336 336 340 341 341 341 341 341 336 333 337 340 340 346 347 346 346
344 345 346 346 348 350 350 350 349 348 347 347 347 345 345 343 339 338 338 339 340 339 338 339 339 338 337 337 337 338 339 340 339 338 333 333 338 338 338 341 346 346 345
340 341 341 342 345 346 347 347 347 346 345 344 345 344 342 340 338 338 339 338 337 336 336 336 335 335 335 336 337 336 336 335 336 332 331 335 334 338 337 341 342 344 343
334 337 339 340 343 344 344 343 344 344 343 343 342 341 340 339 338 337 336 335 334 333 333 332 332 333 333 333 333 334 335 335 332 329 332 329 324 327 331 337 340 341 342
331 333 333 340 341 341 341 341 341 341 341 341 340 339 338 337 336 335 334 333 332 331 331 330 329 329 330 330 330 331 330 331 331 329 333 330 329 330 337 337 339 338 339
328 328 331 333 336 338 338 338 339 339 339 338 337 337 337 336 335 334 332 331 330 329 328 327 326 326 326 328 329 329 328 329 326 328 332 331 338 338 337 335 335 338 338
330 331 333 333 335 334 334 336 337 337 337 336 335 335 335 335 335 333 333 329 328 326 326 325 324 324 325 325 327 328 327 327 323 326 328 330 336 335 335 334 335 336 338
329 333 333 332 333 336 333 334 336 338 337 335 335 334 332 334 333 331 330 330 328 327 327 326 326 326 325 325 326 327 327 321 323 320 326 332 333 333 333 333 334 334 335
328 330 335 334 333 331 328 332 336 335 336 335 335 335 335 334 333 331 331 330 330 330 329 329 328 328 327 322 320 325 321 321 318 318 324 329 329 329 330 333 333 334 335
329 330 336 338 335 334 332 330 332 332 332 335 338 333 335 332 335 331 330 330 328 328 327 326 326 324 323 320 317 317 317 316 315 315 321 323 323 322 323 327 329 330 332
327 328 336 336 335 334 333 332 333 331 330 331 331 333 331 329 330 327 325 323 322 321 321 322 320 322 322 318 316 314 315 315 312 313 315 319 319 316 318 322 325 327 329
326 328 333 336 334 336 332 334 333 332 331 330 329 330 329 327 327 326 324 323 322 321 320 319 318 319 319 317 316 314 313 313 314 313 313 317 318 317 317 321 323 325 327
327 330 335 335 333 331 331 330 331 329 329 328 327 325 327 326 325 324 322 322 321 320 320 318 317 318 318 317 315 315 313 312 312 312 312 311 316 319 320 321 322 324 326
326 328 333 334 332 330 330 329 329 324 324 325 325 325 324 324 323 323 322 321 321 322 321 319 318 317 316 317 315 315 314 313 312 312 313 312 310 318 320 321 322 323 323
330 325 331 332 330 329 330 326 326 327 325 324 325 324 324 323 322 321 320 320 322 322 320 318 317 316 315 314 313 314 312 312 312 312 312 311 310 310 316 320 322 321 321
324 328 329 333 328 326 327 325 325 325 323 322 320 321 321 321 321 319 318 319 320 318 317 317 315 315 314 313 314 313 313 312 310 312 310 310 310 310 309 316 320 320 321
327 327 330 331 325 325 327 325 322 320 321 321 321 318 319 319 317 316 314 316 317 313 312 313 313 312 312 312 314 314 313 314 314 311 310 312 310 310 310 311 314 313 317
328 325 324 323 323 322 321 319 317 316 318 318 318 318 317 316 315 313 312 311 311 310 310 310 309 307 308 309 309 309 310 312 313 313 313 310 310 310 310 310 310 308 310
322 322 320 319 318 318 317 317 317 317 316 316 318 316 316 315 313 311 311 310 309 308 307 308 308 306 305 306 305 304 300 304 307 310 312 312 310 311 310 310 310 310 308
319 318 317 316 316 316 317 316 315 315 314 313 312 312 313 313 312 310 309 309 308 307 305 305 306 304 303 304 304 302 297 296 301 305 306 308 309 311 312 311 310 310 309
317 318 317 317 316 316 316 314 312 311 310 312 314 312 311 311 310 308 307 307 307 307 305 305 305 304 303 300 302 305 302 299 295 296 301 303 306 307 310 311 310 309 309
317 317 317 317 315 316 315 314 312 313 311 310 310 309 308 308 307 306 306 305 305 304 305 305 303 303 302 299 298 297 296 296 297 293 292 293 297 300 303 307 308 309 308
318 318 317 315 314 315 315 314 311 309 309 308 307 305 303 303 303 304 305 304 305 304 304 303 302 299 298 298 298 297 295 294 293 292 290 290 290 295 297 299 304 304 305

GFSSE_sfc_thetae_015.txt.gz
Theta_e
338 345 348 349 349 349 349 349 349 349 350 349 347 346 346 344 344 344 343 344 345 344 344 344 345 345 344 344 343 342 343 343 344 344 344 345 344 344 345 347 346 342 344
341 346 347 349 349 350 350 349 349 349 350 348 347 347 347 344 342 341 341 342 343 343 343 343 342 341 341 342 341 341 342 342 342 343 343 342 342 340 344 344 344 343 345
342 346 347 347 349 350 350 349 349 349 348 347 347 347 345 343 342 340 340 341 341 341 341 341 340 339 338 337 339 341 341 342 341 341 341 333 331 341 340 343 343 343 342
343 345 346 347 348 349 349 348 348 348 347 347 346 345 345 343 340 339 339 341 340 339 339 339 339 339 338 338 337 337 338 339 339 339 332 334 338 340 338 342 340 343 344
342 346 346 346 347 349 349 348 347 347 347 346 346 345 342 339 339 339 340 341 338 337 337 337 336 336 335 336 336 337 336 336 336 334 329 331 334 336 335 335 340 344 341
337 340 341 342 344 347 347 347 345 344 344 344 344 342 340 339 340 339 337 336 334 334 333 333 332 332 333 333 333 333 334 335 334 326 328 330 333 335 328 331 333 340 341
333 336 338 339 342 344 345 344 343 343 343 343 342 341 339 339 338 336 335 334 332 332 331 330 329 329 330 332 331 331 331 330 328 325 328 324 326 334 334 330 335 339 339
331 333 336 340 340 340 341 341 340 340 341 341 341 340 338 337 337 335 333 332 330 329 328 327 327 327 328 329 330 330 329 329 326 323 330 327 328 330 334 336 337 337 338
328 327 330 333 336 337 337 337 337 338 337 337 338 337 337 336 336 335 333 331 329 327 326 326 326 327 328 328 328 328 328 328 323 321 331 328 333 334 337 337 338 337 337
324 326 326 328 330 330 332 335 335 335 335 334 335 335 334 334 334 334 333 332 330 328 326 326 327 328 327 326 326 326 326 326 317 322 327 330 337 337 336 336 335 336 337
325 325 326 327 328 327 328 333 335 335 335 333 334 334 331 330 330 329 330 330 330 330 329 329 329 328 327 326 326 327 326 320 318 323 323 332 336 335 334 333 333 334 335
322 325 324 324 328 327 330 330 330 333 332 331 331 330 328 328 328 329 329 330 330 329 329 329 330 328 327 321 316 322 317 317 313 317 323 330 332 329 331 332 333 334 335
323 327 328 325 324 324 324 326 328 328 329 329 329 326 324 327 325 323 324 324 323 327 323 325 323 323 320 317 314 311 311 310 310 311 322 326 327 325 325 325 328 330 332
322 328 327 325 325 323 325 324 323 322 324 325 325 324 322 321 319 319 317 316 316 316 317 316 315 315 316 316 313 311 310 310 310 309 314 321 323 321 319 321 324 326 329
322 329 327 325 324 323 324 323 322 323 321 323 321 321 320 321 317 317 317 316 315 315 314 313 313 314 315 315 314 313 310 309 310 310 309 318 319 321 319 320 322 324 326
323 329 327 325 326 323 323 323 321 319 320 321 318 319 320 318 316 317 316 316 315 315 316 314 313 313 314 315 314 313 312 309 309 309 309 310 317 319 321 321 322 323 325
322 329 328 329 328 324 321 321 320 314 317 317 317 317 318 318 316 316 315 315 316 317 315 315 314 314 313 313 312 313 312 311 310 309 309 309 310 317 320 323 323 322 324
327 328 330 332 328 324 322 319 318 317 315 316 317 317 316 317 315 313 312 312 314 315 314 313 313 312 311 310 310 310 311 311 309 309 310 309 308 309 315 320 323 324 325
322 326 322 325 325 324 322 317 316 315 314 313 313 313 314 314 313 310 309 309 311 310 309 309 309 308 307 307 309 309 309 308 309 312 308 309 308 308 307 315 319 321 323
320 325 325 324 322 318 316 314 313 312 313 313 311 311 312 311 310 308 307 307 307 307 306 306 304 305 304 305 309 308 307 309 310 310 311 312 308 308 308 307 312 314 318
317 317 316 316 312 312 311 309 309 308 310 310 310 312 310 309 310 307 306 306 306 305 303 304 303 304 303 304 302 302 302 304 304 306 308 308 308 308 308 308 309 310 312
311 312 311 310 311 310 309 309 310 310 309 310 310 310 310 309 307 308 304 304 304 304 302 301 301 301 301 302 299 298 295 298 300 303 303 305 305 308 309 311 310 310 308
308 308 309 309 309 310 309 309 308 307 307 307 308 308 309 307 305 304 303 302 302 303 301 300 301 300 298 299 299 297 293 291 294 299 299 301 299 302 303 307 309 311 309
308 308 308 309 309 310 309 307 305 305 305 307 305 305 304 303 303 303 302 302 301 301 300 300 303 299 298 296 297 300 296 295 291 289 295 296 296 297 298 301 303 307 310
308 307 307 308 309 309 308 307 306 304 304 305 304 301 301 301 301 302 302 301 300 301 300 299 298 297 297 296 295 297 296 293 291 288 287 289 293 294 295 297 300 302 305
308 307 308 308 308 309 310 308 305 303 303 301 300 298 298 299 299 299 300 299 300 299 298 298 298 297 298 297 297 296 295 293 293 291 287 289 290 290 293 294 297 299 302

GFSSE_sfc_thetae_018.txt.gz
Theta_e
340 345 347 349 349 349 349 349 349 348 348 347 345 345 344 343 343 343 343 344 345 344 344 344 342 341 342 342 341 341 341 341 341 342 342 341 342 343 344 344 343 339 339
343 345 346 348 349 350 349 349 349 349 349 347 346 345 343 342 341 341 341 341 341 341 341 341 340 339 339 338 339 340 341 340 340 340 340 339 338 341 341 345 342 342 342
343 345 345 347 349 349 349 349 349 349 347 346 345 344 343 341 340 339 340 340 340 340 340 339 339 338 338 338 337 337 337 339 339 338 337 331 332 339 337 341 341 342 343
343 344 345 347 348 348 348 348 347 347 346 345 345 344 341 339 339 340 340 339 338 337 336 336 336 335 335 335 336 337 336 335 336 337 330 333 335 338 337 337 341 343 343
343 344 345 345 347 347 347 347 347 347 346 346 344 341 339 339 340 339 337 336 334 334 333 333 332 332 332 332 333 332 333 334 335 329 329 331 332 337 338 336 338 343 343
341 342 342 343 346 347 347 346 345 345 344 344 343 340 339 339 338 336 335 333 332 331 330 329 329 329 330 330 331 330 331 331 330 324 328 334 333 337 333 330 334 338 341
336 340 341 340 343 345 345 344 344 343 342 342 342 340 339 337 336 334 333 332 330 329 328 328 327 327 328 329 330 330 330 330 324 321 325 324 329 335 331 333 335 336 340
333 335 337 341 341 341 342 341 340 340 340 340 340 340 338 337 336 334 332 331 328 327 326 326 328 328 328 328 329 328 328 329 324 318 328 323 328 334 336 335 337 337 338
330 330 331 334 337 338 336 336 336 338 338 338 338 338 337 336 335 335 333 331 329 327 326 327 328 328 328 328 327 327 326 327 318 317 325 326 331 335 336 336 338 338 338
324 328 327 329 330 330 331 334 334 335 335 335 335 335 334 333 334 334 333 332 331 329 328 329 329 328 328 327 327 327 326 324 316 324 326 328 335 337 336 337 336 337 337
322 323 324 325 326 327 329 332 334 335 334 333 333 333 330 329 329 328 330 329 331 330 330 330 330 329 327 326 326 326 324 316 313 318 322 330 336 335 335 334 334 334 335
320 322 323 324 324 325 330 330 329 331 330 329 329 328 327 326 326 328 328 330 331 330 330 330 330 329 328 320 318 317 310 310 310 312 320 328 332 332 331 332 333 333 334
322 324 323 326 325 322 324 325 326 327 327 328 328 327 325 325 325 324 322 323 321 324 321 321 321 318 318 317 315 310 309 308 308 309 321 327 328 328 327 327 328 329 330
322 323 322 323 323 320 321 324 325 325 326 326 324 322 320 317 316 315 314 314 314 313 314 313 312 312 312 314 313 311 310 308 308 308 311 324 325 325 323 323 323 324 327
324 324 322 322 320 321 322 321 321 321 322 322 319 320 319 317 314 315 314 314 313 313 312 312 312 312 312 313 313 313 312 309 308 308 308 319 322 323 323 323 323 323 324
326 323 324 324 323 321 321 321 320 318 320 318 317 318 318 318 314 314 313 313 313 314 313 312 311 311 311 311 312 313 312 311 309 307 308 308 319 321 323 323 323 324 324
327 326 324 324 323 323 321 321 318 314 319 315 314 316 316 316 314 312 310 309 310 311 311 310 310 310 308 309 308 310 310 310 310 309 308 307 308 318 320 323 325 326 325
326 324 326 328 324 322 321 318 318 315 314 314 315 315 314 313 311 308 307 306 308 307 307 307 307 305 305 304 304 305 306 308 308 308 308 307 307 309 313 319 322 325 326
325 324 325 324 322 321 320 316 314 312 311 311 311 311 310 310 310 307 305 305 306 305 305 304 303 302 302 302 304 304 304 304 306 310 309 309 307 308 307 312 319 320 323
322 322 322 322 322 318 313 311 311 310 311 309 309 309 308 308 308 305 305 306 305 304 303 302 301 301 301 301 304 303 302 303 304 303 304 308 307 307 306 306 306 312 317
313 313 314 314 313 313 309 307 308 307 307 307 308 308 308 307 306 305 304 303 303 302 301 301 300 299 300 300 298 299 299 300 300 300 301 302 303 305 303 305 307 307 309
311 312 309 308 308 308 308 309 309 307 307 308 309 307 306 304 303 303 301 300 301 300 299 298 298 298 299 299 296 296 293 296 296 297 297 300 297 300 299 302 304 306 309
305 306 307 307 308 308 308 307 307 307 306 305 304 302 302 303 303 301 300 300 299 299 298 298 298 297 296 297 297 295 291 289 292 294 295 294 294 294 296 299 300 304 308
304 305 306 307 307 307 307 305 305 304 303 303 301 299 299 300 300 300 300 299 298 299 298 298 299 296 296 294 296 298 298 296 291 289 291 293 293 293 293 295 295 301 304
305 305 305 306 307 307 306 305 305 301 301 301 299 298 298 299 299 299 299 298 297 297 296 296 295 294 295 293 294 294 292 292 294 290 287 289 291 292 292 293 293 297 300
305 305 304 306 306 307 306 304 302 301 300 298 296 296 298 298 297 297 297 296 295 295 294 294 294 294 293 293 293 293 292 290 289 288 288 288 288 288 290 292 292 294 298

GFSSE_sfc_thetae_024.txt.gz
Theta_e
339 343 348 350 350 349 348 347 347 347 346 344 344 343 343 343 342 342 341 343 342 340 340 339 338 338 338 338 338 338 339 339 339 340 340 340 341 340 341 343 341 339 343
341 343 347 349 349 349 348 347 347 347 345 344 343 342 341 341 340 341 340 339 338 336 336 335 334 334 334 335 336 337 336 336 336 338 339 339 338 339 339 343 341 340 342
340 344 345 347 348 348 348 348 348 344 344 343 343 341 339 340 340 338 336 336 335 333 333 332 332 331 331 331 332 332 333 335 335 336 336 331 330 338 337 342 341 343 340
341 342 344 346 348 348 348 347 345 344 343 343 341 339 340 339 337 335 334 335 333 331 331 330 329 328 328 329 329 330 330 332 333 334 329 332 334 338 338 339 340 340 340
340 342 344 345 346 347 346 346 346 345 344 342 340 339 339 337 334 333 333 334 332 330 330 330 329 327 328 329 329 329 329 330 328 325 326 330 332 335 340 337 335 338 339
338 341 341 343 345 346 346 346 345 345 343 341 341 339 337 335 333 332 332 331 330 331 331 331 330 329 329 330 330 329 329 329 325 317 322 327 329 336 339 336 336 337 338
340 341 341 341 343 345 345 344 344 342 341 341 340 339 336 334 333 331 331 330 330 330 330 330 330 330 331 332 330 329 329 328 320 316 320 326 323 333 337 337 335 337 337
339 340 341 342 343 343 343 343 341 340 340 340 340 339 336 335 334 331 330 330 330 330 330 330 330 330 332 332 331 329 327 325 320 322 322 326 330 336 337 337 338 338 337
338 338 339 337 340 339 338 338 337 338 338 338 338 337 336 335 334 333 332 331 331 331 332 332 332 332 331 330 330 327 324 324 311 320 325 326 334 336 334 336 338 338 338
331 331 329 331 332 330 331 335 335 335 335 335 336 335 333 333 332 332 331 330 332 332 332 332 332 331 331 330 328 326 321 317 308 310 317 320 332 335 334 333 334 336 337
325 325 324 325 325 325 326 331 334 335 334 334 334 333 329 325 325 326 330 331 332 331 332 331 330 329 326 323 324 325 318 309 307 308 310 322 329 333 333 333 335 335 334
320 321 321 322 323 323 329 327 326 329 328 328 328 327 325 324 323 326 327 328 326 323 324 323 322 320 317 313 314 317 311 310 308 308 308 322 327 329 328 330 333 333 332
318 320 321 322 322 322 324 324 324 325 325 325 325 324 324 324 322 322 317 313 312 317 312 313 312 311 311 311 311 311 311 311 309 308 309 318 321 324 327 328 331 331 330
316 319 320 320 320 320 321 323 322 323 324 324 324 325 322 317 315 311 312 311 311 311 310 310 309 309 308 308 308 308 309 309 309 309 309 317 320 323 325 326 326 330 330
315 317 319 320 319 319 320 321 321 322 324 324 323 320 317 313 312 311 310 309 308 308 307 306 306 305 305 306 306 306 306 308 308 309 308 314 317 319 322 324 325 326 326
317 318 320 320 320 319 318 319 320 320 321 322 316 316 316 313 311 309 306 305 306 305 305 305 303 302 302 303 302 303 305 305 306 306 307 307 313 315 317 320 322 323 325
319 319 319 322 319 318 317 319 321 318 319 315 314 314 314 311 307 304 304 304 304 304 303 303 302 302 300 301 300 302 303 303 303 305 305 306 306 310 312 313 314 317 319
318 321 323 325 322 320 319 318 314 315 313 312 310 308 308 307 305 304 303 302 303 303 302 301 300 299 298 298 298 300 300 302 302 304 303 304 304 303 303 308 308 310 311
321 321 321 322 320 320 318 314 310 309 309 306 305 305 306 305 305 302 303 302 304 301 299 299 298 298 297 298 300 300 299 299 300 301 301 302 302 300 300 303 304 304 306
321 322 322 321 320 317 313 312 310 308 305 306 306 309 304 306 305 305 303 300 299 298 298 298 297 298 297 298 300 300 298 298 299 297 298 300 299 299 298 299 298 299 302
319 321 321 321 319 310 309 308 306 304 306 310 305 304 305 303 301 299 298 298 298 297 297 298 297 296 297 297 295 295 296 297 296 296 296 297 296 297 298 297 297 298 297
316 316 314 313 312 308 309 308 308 308 308 305 302 300 300 299 299 299 297 297 298 297 296 296 295 294 295 295 293 292 289 291 294 295 295 295 294 295 296 296 296 297 296
304 304 305 306 306 307 308 306 304 304 303 299 297 296 297 299 299 298 298 297 297 297 295 294 293 292 291 293 293 292 287 285 289 292 293 293 292 293 293 294 295 296 296
301 302 302 304 304 305 304 303 302 301 300 298 296 296 296 298 298 299 297 298 296 295 294 294 295 292 292 290 292 294 292 290 287 286 291 292 292 292 292 292 293 294 295
301 300 301 304 304 303 303 303 301 298 297 296 295 296 298 299 299 298 297 294 293 293 292 292 291 291 291 290 289 289 289 289 289 288 284 287 290 293 292 292 292 292 294
302 303 302 304 303 303 301 301 300 297 296 295 295 298 298 296 296 294 295 293 293 292 291 291 291 290 290 289 289 288 288 288 286 285 284 285 286 289 291 293 291 292 293

GFSSE_sfc_thetae_027.txt.gz
Theta_e
342 347 346 348 349 348 347 347 347 347 347 345 344 344 343 343 342 343 342 343 341 338 336 335 335 335 336 337 338 337 337 338 338 338 340 340 340 341 341 341 341 341 343
344 347 345 347 349 348 348 347 347 346 345 343 343 342 341 342 341 340 340 339 337 334 333 333 332 331 332 332 333 334 335 336 336 337 338 338 336 340 341 341 341 341 342
345 347 345 345 348 348 348 348 347 345 344 343 342 340 341 340 337 336 337 337 336 332 331 330 329 330 330 330 330 330 332 333 335 336 337 338 338 341 339 341 341 339 339
345 346 344 345 347 348 348 346 346 344 343 342 340 340 339 337 335 335 334 336 335 332 331 329 329 330 330 331 330 331 331 331 330 332 337 339 338 339 341 340 338 339 340
345 346 346 344 346 347 347 345 345 344 343 342 341 340 337 334 334 333 334 335 335 333 333 331 331 331 330 330 331 330 330 331 327 332 335 337 338 337 340 337 337 336 339
344 345 344 343 345 346 346 346 345 344 342 341 341 339 335 333 332 332 334 335 334 333 333 332 332 332 332 332 331 330 329 329 330 330 335 335 334 336 338 338 338 337 339
343 345 346 340 343 345 346 345 344 342 341 341 341 339 336 333 332 332 334 334 333 332 332 332 332 332 333 333 330 329 328 325 327 328 334 336 337 337 337 338 338 338 338
341 344 345 343 343 344 344 343 341 340 340 340 340 339 336 334 334 332 332 333 332 332 332 332 332 332 332 331 330 328 326 324 320 322 327 329 336 337 335 337 338 339 339
341 341 343 344 343 340 339 339 337 338 338 339 338 337 336 334 334 334 333 333 333 333 333 333 332 332 331 329 328 327 323 321 320 319 319 322 331 334 334 334 337 336 336
338 338 339 343 342 342 340 336 335 336 336 336 336 335 333 332 333 333 330 332 333 333 332 331 331 328 326 326 327 325 321 321 321 320 319 320 328 330 332 332 333 335 335
334 336 338 339 339 337 337 336 335 336 335 334 335 333 330 333 332 332 330 332 329 328 329 328 325 323 323 323 324 323 322 323 322 321 320 320 325 327 329 332 333 334 334
331 333 334 335 333 333 332 335 335 334 334 335 334 334 334 333 333 332 329 325 324 324 324 323 321 322 321 320 320 321 320 320 321 321 321 320 323 326 327 329 332 332 332
331 330 329 331 331 330 331 333 332 333 333 334 333 334 334 333 334 332 325 324 324 321 320 320 319 317 317 316 316 316 317 317 317 317 318 319 321 324 327 327 327 329 331
325 325 327 328 329 329 330 330 331 332 333 333 334 334 334 331 326 324 322 320 320 319 318 317 315 316 314 313 312 312 314 314 313 313 315 316 318 321 324 325 326 327 328
321 324 326 327 327 327 329 330 331 331 332 333 333 330 328 325 323 321 318 317 316 317 316 314 314 312 312 311 311 310 311 312 312 312 313 314 315 318 321 322 323 324 324
321 323 326 327 327 327 326 328 329 330 330 329 327 327 325 324 321 316 316 314 314 314 314 313 312 311 310 309 309 310 310 311 311 312 312 313 311 311 313 315 316 317 318
323 325 326 326 327 325 325 324 321 322 322 322 323 322 322 318 316 316 315 314 313 313 313 312 310 310 308 307 308 309 309 310 309 311 312 312 311 308 307 309 310 311 312
325 326 328 326 325 324 324 318 316 318 320 318 317 315 315 315 316 314 311 311 311 309 308 308 307 307 307 307 307 307 308 308 309 309 309 309 308 307 307 306 307 307 308
326 326 325 327 326 324 318 314 313 315 314 312 312 313 314 312 312 310 308 308 309 308 308 307 307 307 305 305 303 305 305 305 309 307 306 306 306 306 305 305 305 304 305
326 325 326 327 322 316 315 314 313 313 312 311 312 312 311 309 310 309 308 308 309 307 306 306 304 304 304 303 301 302 302 306 309 306 304 304 304 304 304 304 303 302 303
325 325 326 322 318 315 314 312 312 311 311 311 309 310 309 308 308 308 307 307 307 305 304 304 303 302 301 303 300 299 300 306 305 304 302 302 302 302 302 302 301 301 301
324 325 324 323 317 314 315 316 318 316 314 309 307 307 307 307 307 306 307 306 305 304 303 303 302 300 300 302 298 297 293 296 302 300 300 299 300 301 300 301 301 301 301
321 322 323 321 316 316 316 316 314 311 308 306 306 305 306 306 306 306 306 306 305 304 302 302 301 300 297 299 301 296 291 290 293 297 297 298 298 298 298 298 299 299 301
309 312 314 316 314 314 313 313 312 312 311 308 307 306 306 305 305 305 305 304 304 303 301 301 301 300 298 295 297 298 297 294 288 287 293 294 295 294 296 297 298 299 300
309 310 311 311 311 311 311 312 310 308 307 306 306 305 306 306 305 304 304 303 303 303 302 300 300 299 298 296 294 294 293 293 293 289 286 288 291 293 295 294 297 298 299
310 311 311 310 309 310 310 310 309 307 306 306 306 306 306 306 306 305 302 302 302 301 300 299 299 298 297 296 295 294 291 289 288 288 286 286 286 289 291 293 294 297 298

GFSSE_sfc_thetae_030.txt.gz
Theta_e
343 345 348 348 349 348 348 347 347 347 347 346 345 345 344 343 343 342 342 341 339 335 335 334 333 332 332 333 334 336 336 337 338 339 340 340 341 341 342 342 342 341 342
345 345 345 348 348 348 348 347 347 347 346 344 344 343 342 341 340 340 340 339 336 333 332 331 331 331 331 331 332 333 334 335 337 338 339 340 342 342 341 341 342 340 340
345 344 345 346 348 348 347 346 346 345 343 343 342 342 340 338 337 336 338 338 335 332 330 331 332 332 332 332 332 333 334 333 333 336 340 337 340 342 341 340 340 339 338
345 344 345 345 347 348 347 348 346 344 343 341 341 340 337 336 335 334 334 336 336 332 331 333 332 331 332 332 331 331 333 332 331 335 338 338 337 340 340 338 336 336 339
344 345 346 345 346 347 347 346 346 344 343 342 341 337 335 334 333 333 335 337 337 333 333 333 332 330 329 331 331 330 329 332 333 335 337 338 337 339 339 338 339 339 338
344 345 344 343 345 346 346 346 345 343 342 342 341 337 334 333 333 333 336 337 335 334 333 333 333 332 332 332 330 329 328 329 332 330 334 336 338 339 338 337 340 339 339
343 346 347 339 342 346 346 345 344 342 341 342 340 338 336 332 333 333 335 335 334 333 333 333 333 333 332 332 328 326 326 327 323 325 328 333 335 337 337 336 336 337 337
344 344 345 342 342 344 345 344 341 341 341 341 340 338 335 334 334 333 333 333 333 333 333 333 332 332 331 330 329 325 324 325 322 320 321 325 332 334 334 335 337 337 335
343 343 345 345 344 341 340 339 338 339 340 339 339 337 336 335 335 334 334 334 334 334 333 332 329 329 328 328 327 325 323 323 324 323 321 321 328 330 331 331 334 334 333
342 343 344 342 342 342 340 337 336 336 337 337 337 334 333 333 334 332 334 333 331 332 331 328 327 326 327 326 325 325 324 326 324 323 323 324 326 328 329 330 330 332 333
339 340 342 340 339 339 336 336 334 336 336 335 335 333 330 334 334 332 330 329 329 329 327 326 324 325 325 325 324 323 325 322 323 322 323 323 325 328 329 329 329 332 334
335 339 340 339 338 335 330 334 334 333 336 336 336 336 338 339 337 333 328 326 325 324 324 323 323 324 322 321 320 322 319 320 320 320 322 320 322 325 327 328 328 329 332
337 335 336 337 335 331 331 332 332 336 337 339 340 340 340 340 340 337 330 330 329 325 325 323 321 320 321 319 317 317 317 317 317 316 318 318 319 322 324 326 327 327 328
330 329 330 331 333 333 331 332 334 336 338 339 340 340 340 338 337 333 330 329 328 325 323 321 321 320 318 317 316 316 316 315 315 315 316 316 317 319 322 323 323 323 323
325 327 328 330 331 332 334 335 336 338 338 338 339 337 338 335 332 329 327 326 325 325 322 321 319 317 317 316 315 315 314 315 315 315 315 315 314 315 317 318 318 318 318
326 327 330 329 331 332 334 336 336 336 337 337 331 330 330 331 331 326 323 323 324 322 320 318 316 315 315 315 314 315 314 314 314 314 313 315 310 309 311 313 314 314 314
327 329 330 331 332 333 334 333 330 328 329 329 327 325 327 326 323 323 323 321 317 316 315 314 314 315 315 314 314 313 313 313 312 312 312 312 314 309 307 308 309 310 310
328 330 332 332 333 331 328 326 325 324 325 324 323 322 321 320 320 318 317 314 315 315 315 314 314 313 311 311 309 308 309 309 308 311 311 312 311 310 310 308 307 307 306
329 331 331 333 330 324 322 321 324 321 320 319 317 317 317 314 314 315 315 315 315 314 314 312 310 309 307 307 306 305 306 306 306 307 308 309 309 308 308 309 307 306 304
331 332 332 332 327 325 318 319 319 320 318 317 317 316 315 315 315 315 314 315 314 312 310 308 307 307 306 305 303 302 305 305 306 308 307 306 307 307 307 306 305 305 305
331 331 332 330 325 325 322 316 316 315 314 314 315 315 315 314 314 315 315 313 311 309 308 308 306 305 304 305 303 302 303 305 308 307 306 305 305 304 305 304 304 303 303
329 330 331 329 330 329 326 323 321 320 320 318 315 314 314 313 313 313 312 311 309 308 308 307 305 302 302 303 300 299 296 299 302 305 302 303 303 303 302 302 302 302 303
328 329 329 330 329 326 324 322 321 320 316 314 313 313 313 313 312 312 311 310 309 307 305 305 304 302 299 301 302 298 294 292 295 299 299 300 300 299 300 300 300 300 302
329 330 330 326 323 322 322 320 318 318 316 317 317 315 313 312 311 310 309 309 308 307 306 304 303 302 301 298 299 299 299 297 291 290 295 296 297 297 297 297 298 298 300
322 325 327 324 320 319 319 318 318 316 315 314 313 311 313 312 310 309 309 309 308 307 306 305 303 303 301 298 297 296 296 295 295 291 288 291 294 295 295 296 295 296 297
318 320 321 318 317 317 317 317 316 314 312 312 311 308 307 308 308 309 309 309 308 307 305 304 303 302 300 299 297 295 293 292 291 290 288 289 289 291 293 294 294 295 295

GFSSE_sfc_thetae_033.txt.gz
Theta_e
340 343 348 349 349 348 348 347 347 347 348 346 345 345 343 343 342 342 341 340 338 334 333 332 332 332 332 334 335 336 336 337 338 339 339 341 343 343 342 341 343 337 342
342 342 346 348 348 348 347 348 348 347 346 344 344 343 342 341 341 339 340 338 336 332 333 334 334 334 334 334 334 335 335 334 336 338 339 342 343 342 341 339 342 339 340
343 343 344 346 347 348 347 346 346 345 344 343 342 341 339 337 336 337 338 337 335 332 334 333 333 333 333 332 332 334 335 333 334 338 342 337 338 341 339 340 339 339 340
343 342 342 345 347 348 347 347 346 344 342 342 340 337 336 335 334 334 335 338 336 334 333 332 331 330 330 330 330 329 331 334 337 338 334 334 335 340 339 340 339 338 339
342 342 345 345 346 347 347 346 345 344 343 342 340 336 335 333 333 335 337 338 337 335 334 333 331 330 329 330 330 330 330 332 333 331 333 335 334 338 338 337 337 338 338
342 344 342 342 345 346 347 345 343 343 343 341 339 336 333 333 334 335 338 337 335 334 333 333 333 332 332 332 330 328 329 330 329 327 330 334 335 337 338 335 337 337 338
344 344 344 341 343 345 345 344 342 342 342 341 339 337 334 333 334 334 335 334 334 334 333 333 333 332 332 331 329 328 328 328 322 320 323 328 331 335 335 335 334 334 334
341 341 343 342 342 344 344 342 341 341 342 340 339 337 334 334 334 333 334 334 334 333 333 330 331 330 330 329 328 327 326 328 325 323 321 324 331 333 332 331 335 335 333
341 340 342 341 343 341 339 338 338 339 340 340 338 336 336 336 336 335 335 334 334 333 331 329 328 328 328 327 327 327 327 328 325 323 323 325 328 330 331 331 332 333 332
341 343 343 342 340 340 339 337 337 338 337 337 335 334 333 333 333 334 333 331 332 331 329 327 327 327 327 326 325 325 325 326 323 322 324 323 327 329 330 330 330 330 334
340 339 339 336 337 337 334 335 336 337 336 335 333 333 331 332 333 333 329 330 329 328 326 325 325 324 326 327 324 322 325 320 320 320 322 324 324 326 328 329 329 329 330
336 336 336 336 336 334 328 332 332 333 333 335 334 334 335 335 336 331 328 328 327 325 325 324 325 323 325 321 320 323 319 319 318 318 319 321 320 322 325 327 328 329 329
336 331 334 336 335 330 330 331 331 333 335 336 337 338 338 336 336 335 330 328 330 327 326 323 323 322 322 320 319 319 318 318 317 317 317 319 318 319 322 324 324 324 324
330 331 332 332 331 332 330 330 333 333 336 336 338 338 338 336 335 332 328 329 327 325 324 323 322 322 321 320 319 318 318 317 316 316 317 318 317 317 318 319 320 319 319
326 326 328 330 331 333 333 334 336 336 337 338 339 337 335 333 336 331 328 325 325 323 323 323 321 319 319 318 318 317 316 316 316 315 315 316 315 315 315 316 316 316 316
325 326 328 329 332 334 335 337 339 339 337 336 336 336 332 331 331 328 327 323 323 322 320 317 316 317 317 317 316 316 315 314 314 314 313 314 314 312 311 311 312 313 313
327 328 329 332 334 336 335 332 330 329 328 328 332 332 330 330 326 328 325 318 317 318 318 318 317 317 316 314 312 312 311 310 310 309 311 312 312 311 310 309 308 309 309
329 329 331 331 334 333 330 326 327 327 327 327 327 327 324 322 321 318 318 319 317 317 316 316 314 311 310 310 309 309 307 307 308 308 308 310 310 309 310 308 308 307 307
330 331 331 334 332 330 326 324 326 325 323 325 321 321 319 317 318 318 317 318 318 317 316 313 311 310 308 307 305 306 307 305 307 306 307 309 309 308 308 309 311 310 305
331 334 333 332 331 329 327 325 324 322 322 320 318 318 317 318 319 319 318 318 316 314 312 311 310 308 306 304 303 304 306 306 306 307 308 308 307 307 306 306 305 304 308
332 332 332 332 331 328 327 324 323 321 320 319 318 319 319 318 317 318 317 316 314 312 310 310 307 305 303 304 302 301 303 306 307 307 306 306 304 304 305 303 303 303 303
331 331 330 330 330 329 329 326 325 322 321 320 320 319 318 317 316 316 314 312 312 310 309 308 307 304 303 303 299 299 295 297 301 303 303 303 303 302 302 301 301 301 301
328 329 329 330 329 330 328 325 323 323 321 317 316 316 316 316 315 313 312 311 310 308 305 307 306 303 300 301 302 298 293 291 295 298 299 299 301 299 300 299 299 299 299
327 330 332 331 330 327 325 322 321 318 314 317 318 317 316 314 313 311 310 310 309 308 307 306 305 304 302 298 299 299 299 297 291 289 295 296 298 297 299 297 297 297 297
330 330 330 328 324 323 323 322 321 318 319 318 317 315 315 314 313 311 310 310 309 308 307 307 305 304 302 299 298 297 296 295 295 291 288 291 294 295 295 296 296 296 296
327 328 327 322 320 321 321 320 319 318 315 314 312 310 308 308 308 309 308 309 308 307 306 306 305 303 302 300 299 297 294 292 291 291 289 289 290 293 294 296 296 296 297

GFSSE_sfc_thetae_039.txt.gz
Theta_e
341 346 348 350 349 348 348 347 347 347 347 346 344 343 342 341 340 339 339 340 340 337 337 336 336 336 336 336 337 338 338 338 342 343 343 342 341 340 340 341 342 338 343
344 346 346 348 348 348 348 347 347 346 345 343 343 342 341 340 339 339 340 339 338 335 335 334 333 332 332 331 332 334 336 337 338 342 342 341 341 341 340 341 341 340 342
343 345 345 346 347 348 348 347 346 345 343 341 341 340 340 339 339 340 340 338 338 334 332 331 331 331 331 332 334 335 336 336 335 339 341 334 333 339 339 341 340 341 340
342 343 343 345 346 347 346 345 345 343 341 341 340 338 340 339 338 340 339 338 337 334 333 332 332 331 331 332 334 334 334 337 337 339 333 331 334 338 335 334 334 335 338
338 341 344 344 345 345 345 344 342 341 340 339 338 338 338 338 338 337 338 337 337 334 333 333 332 331 332 331 331 332 332 333 336 331 327 329 329 335 336 334 333 333 334
339 341 341 342 343 344 344 343 341 339 338 338 338 339 338 337 337 336 338 337 335 333 333 332 331 330 331 330 330 329 329 331 327 321 323 329 328 335 334 333 335 334 335
339 341 340 339 341 344 344 342 340 338 337 338 338 339 338 336 335 335 337 336 334 332 331 331 330 331 331 330 330 328 328 329 317 317 322 324 327 333 333 333 332 333 333
337 337 337 339 341 341 342 340 338 337 337 337 338 337 337 337 337 336 337 336 334 331 330 329 330 330 329 330 329 327 327 327 320 318 322 322 333 332 333 332 333 334 335
335 334 336 339 338 338 338 337 336 336 336 336 336 336 336 336 336 337 337 335 333 332 330 328 327 327 327 327 328 326 324 325 312 316 320 321 332 329 330 330 331 332 332
333 333 337 335 334 334 334 335 334 334 334 334 334 333 333 333 334 333 334 334 333 330 327 325 324 325 325 323 327 325 323 321 310 314 316 320 328 326 329 328 329 329 329
332 332 333 332 331 331 332 334 333 334 332 332 332 331 329 328 329 327 329 331 330 327 324 325 323 325 325 323 324 324 320 312 310 313 313 325 325 323 325 325 325 325 324
326 331 333 331 330 329 332 330 329 329 327 326 327 328 327 327 325 323 328 329 328 326 324 324 323 324 321 313 313 318 311 310 310 309 313 323 322 321 322 322 322 321 320
327 329 331 331 328 324 327 327 327 326 325 326 327 326 327 328 324 322 320 321 319 324 317 318 317 315 312 313 311 312 312 310 308 309 317 321 320 319 320 320 319 318 318
326 328 330 330 325 322 326 326 326 326 328 328 330 330 327 327 326 323 319 322 319 317 313 312 311 311 312 313 312 310 309 306 306 306 313 320 319 318 318 318 317 316 314
324 326 325 326 322 323 325 328 329 329 330 330 330 328 325 323 323 321 318 315 313 313 310 309 311 311 310 309 307 307 308 305 302 302 306 318 319 317 316 315 314 313 312
324 323 323 324 324 328 329 329 329 330 329 328 328 326 326 324 319 315 314 312 311 310 311 311 309 307 306 306 305 305 304 301 301 300 302 306 317 316 314 312 311 311 311
323 323 322 323 328 329 326 323 323 322 325 325 325 324 321 320 316 314 312 309 309 310 310 308 306 305 304 304 302 301 301 301 301 301 301 301 311 315 314 310 309 309 309
322 321 323 328 327 323 322 321 322 322 322 322 322 317 315 316 314 312 311 309 310 310 309 306 304 303 301 299 297 296 298 299 300 300 300 300 304 306 312 314 308 308 308
321 322 324 327 323 321 321 323 322 320 319 319 316 314 314 314 313 310 310 310 309 308 306 305 303 300 297 297 298 297 297 297 297 300 300 300 300 300 301 309 308 307 305
322 324 327 324 322 320 321 320 319 317 317 315 314 313 312 312 313 311 310 309 308 306 304 303 301 300 298 296 299 297 295 296 296 296 295 298 297 297 299 299 296 297 305
323 325 325 322 321 321 319 318 317 314 313 312 313 312 312 313 312 311 310 308 305 304 301 301 299 297 296 296 293 293 294 294 294 294 294 294 296 296 296 297 296 295 295
323 325 324 323 323 321 322 320 318 314 312 312 312 312 312 311 311 309 306 304 303 301 300 299 298 297 296 295 292 290 287 290 292 294 292 293 292 293 294 295 294 295 293
323 324 324 323 322 322 322 320 316 313 312 309 309 309 309 310 309 307 306 304 302 301 299 298 297 296 293 294 294 291 287 284 287 290 290 290 290 290 290 291 292 292 292
323 325 326 325 324 323 324 318 313 311 308 308 308 308 308 308 307 307 305 304 302 301 299 299 300 297 295 292 293 296 292 289 285 284 287 289 290 290 289 289 289 290 291
324 325 326 326 326 324 323 318 313 311 310 309 309 307 307 307 307 307 304 302 300 300 299 298 297 298 297 294 292 291 290 289 288 284 282 284 287 289 288 288 288 289 290
325 326 325 322 322 323 318 315 313 311 308 308 308 308 308 305 302 301 301 298 298 297 296 296 295 296 295 294 293 292 291 288 287 286 284 283 283 286 287 288 288 288 288